When you browse on this site, cookies collect data to enhance your experience and personalize the content and advertising you see.
Visit our Privacy Policy to learn more. By continuing to use the site, you agree to this use of cookies and data.
  • In Hungary
  • List of Countries
  • For 7 days
  • Water Temperature
  • Weather Map
  • News
  • Weather Widgets
  • user-avatar
    Login

    Hourly Weather Pchelka

    Today, 19 January, Sunday

    Time Temperature Precipitation Wind Pressure Humidity
    00:00 -23°C° 0 mm 4 mps 753 mmHg 80%
    01:00 -23°C° 0 mm 4 mps 752 mmHg 81%
    02:00 -23°C° 0 mm 4 mps 750 mmHg 82%
    03:00 -23°C° 0 mm 4 mps 749 mmHg 85%
    04:00 -23°C° 0 mm 4 mps 748 mmHg 89%
    05:00 -22°C° 0 mm 4 mps 747 mmHg 92%
    06:00 -20°C° 0.4 mm 4 mps 746 mmHg 93%
    07:00 -18°C° 0.4 mm 3 mps 745 mmHg 93%
    08:00 -17°C° 0.4 mm 3 mps 744 mmHg 94%
    09:00 -16°C° 0.1 mm 3 mps 744 mmHg 92%
    10:00 -16°C° 0.1 mm 3 mps 744 mmHg 90%
    11:00 -17°C° 0.1 mm 4 mps 744 mmHg 89%
    12:00 -17°C° 0 mm 4 mps 745 mmHg 89%
    13:00 -17°C° 0 mm 4 mps 745 mmHg 89%
    14:00 -18°C° 0 mm 4 mps 746 mmHg 89%
    15:00 -18°C° 0 mm 3 mps 746 mmHg 90%
    16:00 -18°C° 0 mm 3 mps 747 mmHg 92%
    17:00 -19°C° 0 mm 3 mps 748 mmHg 94%
    18:00 -19°C° 0 mm 3 mps 748 mmHg 94%
    19:00 -19°C° 0 mm 3 mps 749 mmHg 94%
    20:00 -21°C° 0 mm 3 mps 750 mmHg 94%
    21:00 -22°C° 0 mm 3 mps 750 mmHg 94%
    22:00 -22°C° 0 mm 3 mps 751 mmHg 95%
    23:00 -23°C° 0 mm 3 mps 751 mmHg 95%

    Tomorrow, 20 January, Monday

    Time Temperature Precipitation Wind Pressure Humidity
    00:00 -25°C° 0 mm 3 mps 752 mmHg 96%
    01:00 -25°C° 0 mm 2 mps 752 mmHg 96%
    02:00 -26°C° 0 mm 2 mps 753 mmHg 97%
    03:00 -27°C° 0 mm 2 mps 754 mmHg 97%
    04:00 -28°C° 0 mm 2 mps 754 mmHg 97%
    05:00 -29°C° 0 mm 2 mps 755 mmHg 97%
    06:00 -30°C° 0 mm 2 mps 755 mmHg 96%
    07:00 -30°C° 0 mm 2 mps 755 mmHg 95%
    08:00 -30°C° 0 mm 2 mps 755 mmHg 95%
    09:00 -31°C° 0 mm 3 mps 755 mmHg 92%
    10:00 -29°C° 0 mm 3 mps 755 mmHg 90%
    11:00 -27°C° 0 mm 3 mps 756 mmHg 88%
    12:00 -26°C° 0 mm 3 mps 755 mmHg 88%
    13:00 -25°C° 0 mm 3 mps 755 mmHg 88%
    14:00 -25°C° 0 mm 3 mps 755 mmHg 88%
    15:00 -25°C° 0 mm 3 mps 755 mmHg 89%
    16:00 -26°C° 0 mm 3 mps 755 mmHg 91%
    17:00 -27°C° 0 mm 3 mps 755 mmHg 92%
    18:00 -27°C° 0 mm 3 mps 755 mmHg 92%
    19:00 -29°C° 0 mm 4 mps 754 mmHg 92%
    20:00 -29°C° 0 mm 4 mps 754 mmHg 92%
    21:00 -29°C° 0 mm 4 mps 754 mmHg 90%
    22:00 -29°C° 0 mm 4 mps 754 mmHg 89%
    23:00 -29°C° 0 mm 4 mps 753 mmHg 88%

    Day after tomorrow, 21 January, Tuesday

    Time Temperature Precipitation Wind Pressure Humidity
    00:00 -29°C° 0 mm 4 mps 753 mmHg 87%
    01:00 -29°C° 0 mm 4 mps 753 mmHg 87%
    02:00 -27°C° 0 mm 4 mps 752 mmHg 86%
    03:00 -29°C° 0 mm 4 mps 752 mmHg 86%
    04:00 -29°C° 0 mm 4 mps 752 mmHg 87%
    05:00 -29°C° 0 mm 4 mps 752 mmHg 87%
    06:00 -29°C° 0 mm 4 mps 752 mmHg 88%
    07:00 -27°C° 0 mm 3 mps 752 mmHg 89%
    08:00 -27°C° 0 mm 3 mps 752 mmHg 91%
    09:00 -26°C° 0 mm 3 mps 752 mmHg 91%
    10:00 -25°C° 0 mm 2 mps 752 mmHg 92%
    11:00 -24°C° 0 mm 2 mps 752 mmHg 93%
    12:00 -24°C° 0 mm 2 mps 752 mmHg 93%
    13:00 -23°C° 0 mm 2 mps 752 mmHg 93%
    14:00 -23°C° 0 mm 2 mps 753 mmHg 94%
    15:00 -21°C° 0 mm 1 mps 753 mmHg 95%
    16:00 -22°C° 0 mm 1 mps 753 mmHg 96%
    17:00 -24°C° 0 mm 1 mps 754 mmHg 97%
    18:00 -24°C° 0 mm 1 mps 754 mmHg 97%
    19:00 -25°C° 0 mm 1 mps 755 mmHg 98%
    20:00 -25°C° 0 mm 1 mps 755 mmHg 98%
    21:00 -25°C° 0 mm 1 mps 755 mmHg 98%
    22:00 -25°C° 0 mm 1 mps 755 mmHg 98%
    23:00 -25°C° 0 mm 1 mps 756 mmHg 97%

    22 January, Wednesday

    Time Temperature Precipitation Wind Pressure Humidity
    00:00 -25°C° 0 mm 1 mps 756 mmHg 97%
    01:00 -25°C° 0 mm 1 mps 755 mmHg 97%
    02:00 -25°C° 0 mm 1 mps 755 mmHg 97%
    03:00 -28°C° 0 mm 2 mps 755 mmHg 97%
    04:00 -28°C° 0 mm 2 mps 755 mmHg 97%
    05:00 -28°C° 0 mm 2 mps 755 mmHg 97%
    06:00 -28°C° 0 mm 2 mps 755 mmHg 97%
    07:00 -28°C° 0 mm 2 mps 755 mmHg 97%
    08:00 -28°C° 0 mm 2 mps 754 mmHg 97%
    09:00 -26°C° 0 mm 2 mps 754 mmHg 94%
    10:00 -25°C° 0 mm 2 mps 753 mmHg 91%
    11:00 -24°C° 0 mm 3 mps 753 mmHg 88%
    12:00 -23°C° 0 mm 3 mps 752 mmHg 90%
    13:00 -23°C° 0 mm 3 mps 752 mmHg 91%
    14:00 -22°C° 0 mm 3 mps 751 mmHg 93%
    15:00 -22°C° 0.1 mm 3 mps 751 mmHg 94%
    16:00 -21°C° 0.1 mm 3 mps 750 mmHg 94%
    17:00 -19°C° 0.1 mm 2 mps 750 mmHg 95%
    18:00 -19°C° 0 mm 3 mps 750 mmHg 95%
    19:00 -19°C° 0 mm 3 mps 749 mmHg 95%
    20:00 -18°C° 0 mm 3 mps 749 mmHg 95%
    21:00 -17°C° 0 mm 3 mps 749 mmHg 94%
    22:00 -16°C° 0 mm 3 mps 749 mmHg 94%
    23:00 -15°C° 0 mm 3 mps 748 mmHg 93%

    23 January, Thursday

    Time Temperature Precipitation Wind Pressure Humidity
    00:00 -14°C° 0.1 mm 3 mps 748 mmHg 93%
    01:00 -14°C° 0.1 mm 3 mps 748 mmHg 93%
    02:00 -14°C° 0.1 mm 3 mps 748 mmHg 92%
    03:00 -13°C° 0.1 mm 3 mps 748 mmHg 92%
    04:00 -13°C° 0.1 mm 3 mps 747 mmHg 92%
    05:00 -12°C° 0.1 mm 4 mps 747 mmHg 92%
    06:00 -12°C° 0 mm 4 mps 747 mmHg 92%
    07:00 -12°C° 0 mm 4 mps 747 mmHg 91%
    08:00 -11°C° 0 mm 4 mps 746 mmHg 91%
    09:00 -11°C° 0.1 mm 4 mps 746 mmHg 91%
    10:00 -10°C° 0.1 mm 4 mps 746 mmHg 91%
    11:00 -10°C° 0.1 mm 5 mps 746 mmHg 92%
    12:00 -10°C° 0.2 mm 5 mps 745 mmHg 92%
    13:00 -8°C° 0.2 mm 5 mps 745 mmHg 91%
    14:00 -8°C° 0.2 mm 5 mps 744 mmHg 91%
    15:00 -8°C° 0.1 mm 5 mps 744 mmHg 91%
    16:00 -8°C° 0.1 mm 5 mps 743 mmHg 91%
    17:00 -8°C° 0.1 mm 5 mps 743 mmHg 91%
    18:00 -8°C° 0.1 mm 5 mps 742 mmHg 92%
    19:00 -7°C° 0.1 mm 5 mps 742 mmHg 92%
    20:00 -7°C° 0.1 mm 5 mps 741 mmHg 93%
    21:00 -6°C° 0.4 mm 5 mps 740 mmHg 93%
    22:00 -6°C° 0.4 mm 5 mps 740 mmHg 94%
    23:00 -5°C° 0.4 mm 5 mps 739 mmHg 94%

    24 January, Friday

    Time Temperature Precipitation Wind Pressure Humidity
    00:00 -4°C° 0.3 mm 5 mps 739 mmHg 93%
    01:00 -4°C° 0.3 mm 5 mps 739 mmHg 92%
    02:00 -3°C° 0.3 mm 4 mps 739 mmHg 92%
    03:00 -5°C° 0.1 mm 5 mps 740 mmHg 90%
    04:00 -6°C° 0.1 mm 5 mps 740 mmHg 88%
    05:00 -7°C° 0.1 mm 5 mps 741 mmHg 86%
    06:00 -8°C° 0 mm 5 mps 742 mmHg 86%
    07:00 -10°C° 0 mm 5 mps 743 mmHg 87%
    08:00 -11°C° 0 mm 5 mps 743 mmHg 87%
    09:00 -11°C° 0 mm 6 mps 744 mmHg 84%
    10:00 -11°C° 0 mm 6 mps 744 mmHg 81%
    11:00 -10°C° 0 mm 6 mps 745 mmHg 78%
    12:00 -10°C° 0 mm 6 mps 745 mmHg 79%
    13:00 -10°C° 0 mm 5 mps 745 mmHg 80%
    14:00 -10°C° 0 mm 5 mps 745 mmHg 81%
    15:00 -11°C° 0 mm 5 mps 745 mmHg 84%
    16:00 -12°C° 0 mm 5 mps 745 mmHg 87%
    17:00 -12°C° 0 mm 4 mps 745 mmHg 90%
    18:00 -12°C° 0 mm 4 mps 745 mmHg 90%
    19:00 -12°C° 0 mm 4 mps 745 mmHg 91%
    20:00 -12°C° 0 mm 4 mps 744 mmHg 91%
    21:00 -14°C° 0 mm 4 mps 744 mmHg 92%
    22:00 -13°C° 0 mm 3 mps 744 mmHg 92%
    23:00 -13°C° 0 mm 3 mps 744 mmHg 93%
    Show more